Regional Weather Roundup
Issued by NWS

Home | Current Version | Previous Version | Text Only | Print | Product List | Glossary On
Versions: 1 2 3 4 5 6 7 8 9 10 11 12 13 14 15 16 17 18 19 20 21 22 23 24 25 26 27 28 29 30 31 32 33 34 35 36 37 38 39 40 41 42 43 44 45 46 47 48 49 50
000
ASHW40 PHFO 301212
RWRHI

WEATHER ROUNDUP FOR HAWAII
NATIONAL WEATHER SERVICE HONOLULU HI
200 AM HST THU MAR 30 2017

THIS IS AN AUTOMATED REPORT THAT HAS NOT BEEN QUALITY CONTROLLED.

NOTE..."FAIR" INDICATES FEW OR NO CLOUDS BELOW 12,000 FEET WITH NO
SIGNIFICANT WEATHER AND/OR OBSTRUCTIONS TO VISIBILITY.

* - THESE SITES REPORT LIMITED FIELDS

HIZ001>004-301300-
KAUAI-NIIHAU-

CITY           SKY/WX    TMP DP  RH WIND       PRES   REMARKS
LIHUE APT      PTCLDY    74  67  78 E12       30.11F
PORT ALLEN*      N/A     68 N/A N/A NE6         N/A
POIPU*           N/A     73 N/A N/A NE7G13      N/A
PRINCEVILLE*     N/A     70 N/A N/A S3          N/A
KOKOLE POINT*  NOT AVBL
MOLOAA DAIRY*    N/A     72  66  83 E6G12       N/A
WAIMEA HTS*    NOT AVBL
PUU OPAE*      NOT AVBL
PUU LUA*       NOT AVBL
MAKAHA RIDGE*  NOT AVBL
$$

HIZ005>011-301300-
OAHU-

CITY           SKY/WX    TMP DP  RH WIND       PRES   REMARKS
HONOLULU       PTCLDY    74  65  73 CALM      30.08F
KALAELOA       CLEAR     72  63  73 NE3       30.09F
KANEOHE MCB    NOT AVBL
WHEELER FIELD  NOT AVBL
BELLOWS*       NOT AVBL
KAHUKU*        NOT AVBL
WHEELER*       NOT AVBL
WAIANAE HARBOR NOT AVBL
DILLINGHAM*      N/A     61  59  94 CALM        N/A
KAHUKU TRN*      N/A     82  81  94 W3G12       N/A  HX  95
KAWAILOA*        N/A     70  64  83 E12         N/A
KII*             N/A     75  68  78 E12G18      N/A
MAKUA RANGE*     N/A     66  63  88 W8          N/A
OAHU FOREST NW NOT AVBL
SCHOFIELD BRK*   N/A     64  63  94 MISG        N/A
SCHOFIELD S*   NOT AVBL
WAIANAE VLY*   NOT AVBL
KUAOKALA*      NOT AVBL
HONOULIUULI*   NOT AVBL
MOKUOLOE IS*   NOT AVBL
PALEHUA*       NOT AVBL
WAIAWA PHB*    NOT AVBL
$$

HIZ012>013-301300-
MOLOKAI-

CITY           SKY/WX    TMP DP  RH WIND       PRES   REMARKS
MOLOKAI AIRPT  CLEAR     73  65  75 NE7       30.09F
KALAUPAPA      NOT AVBL
MAKAPULAPAI*   NOT AVBL
MOLOKAI 1*     NOT AVBL
PUU ALII*      NOT AVBL
$$

HIZ016-301300-
KAHOOLAWE-

CITY           SKY/WX    TMP DP  RH WIND       PRES   REMARKS
KAHOOLAWE*     NOT AVBL
HAKIOAWA*      NOT AVBL
HONOKANAIA*      N/A     76  67  75 NE12G26   30.03S
KANELOA*         N/A     72  66  83 E21G32    30.14F
KEALIALALO*    NOT AVBL
LUA MAKIKA*    NOT AVBL
$$

HIZ014>015-301300-
LANAI-

CITY           SKY/WX    TMP DP  RH WIND       PRES   REMARKS
LANAI CITY     FAIR      64  61  90 NE5       30.13F
LANAI 1*       NOT AVBL
$$

HIZ017>028-301300-
MAUI-

CITY           SKY/WX    TMP DP  RH WIND       PRES   REMARKS
KAHULUI        PTCLDY    75  63  66 SE7       30.07F
KAPALUA-W MAUI NOT AVBL
HANA AIRPORT   CLOUDY    73  68  83 SE3       30.12F
HANA*            N/A     75 N/A N/A SE6G12      N/A
HALEAKALA SUMM   N/A     37  28  70 E18G37      N/A  WCI  27
MAALAEA BAY*   NOT AVBL
HALEAKALA*     NOT AVBL
KAUPO GAP*     NOT AVBL
KULA 1*          N/A     45  39  81 NE3         N/A
$$

HIZ023>026-301300-
BIG ISLAND OF HAWAII COAST AND LOWER SLOPES-

CITY           SKY/WX    TMP DP  RH WIND       PRES   REMARKS
KAILUA KONA    CLEAR     73  62  68 E5        30.05F
HILO           PTCLDY    69  65  86 SW6       30.10F
HONOKAA*         N/A     66 N/A N/A VRB1        N/A
KAWAIHAE MWT*    N/A     73 N/A N/A E3          N/A
KAWAIHAE*      NOT AVBL
SOUTH POINT*     N/A     70 N/A N/A N15G23      N/A
UPOLU AIRPORT* NOT AVBL
KAMUELA*       MOSUNNY   55  54  94 E7        30.16F
HAKALAU*         N/A     48  46  93 S6G12       N/A
KALOKO-HONOKO* NOT AVBL
PALI 2*          N/A     61  57  88 SW15G22     N/A
KEALAKOMO*       N/A     73  64  73 N12G17      N/A
KAUPULEHU*     NOT AVBL
KAPAPALA*        N/A     60  59  95 VRB3        N/A
LOWER KAHUKU*  NOT AVBL
PUHE CS*       NOT AVBL
PUHO CS*       NOT AVBL
PTA KEAMUKU*     N/A     55  54  94 CALM        N/A
WAIKOLOA*      NOT AVBL
$$

HIZ027>028-301300-
BIG ISLAND OF HAWAII INTERIOR AND SUMMMITS-

CITY           SKY/WX    TMP DP  RH WIND       PRES   REMARKS
BRADSHAW FIELD PTCLDY    46  35  65 NW6       30.34F
MK VISITOR CEN   N/A     43  30  61 E12         N/A
MAUNA KEA*       N/A     32 -15  12 NE16        N/A  WCI  21
MAUNA LOA*     NOT AVBL
MAUNA LOA 1*   NOT AVBL
PTA KIPUKA*      N/A     46  45  93 SE1G7       N/A
PTA RANGE 17*    N/A     64  57  77 E7G13       N/A
PTA WEST*        N/A     52  48  87 SE8         N/A
NENE CABIN*    NOT AVBL
AHUMOA*        NOT AVBL
PTA PORTABLE*  NOT AVBL
PUU MALI*        N/A     48  41  76 S6          N/A
$$

HIC003-301300-
NORTHWEST ISLANDS-

CITY           SKY/WX    TMP DP  RH WIND       PRES   REMARKS
MIDWAY ISLAND  CLOUDY    63  48  59 NW5       30.13F
MIDWAY NOS*    NOT AVBL
FRENCH FRIGATE NOT AVBL
$$

PHZ110>124-180-301300-
BUOY REPORTS

STATION/POSITION TIME  TEMP    WIND        PRES    WAVE   SWELL
                       AIR SEA DIR/SP/G            HT/PER HT/DIR
                 (UTC) (F)     (DEG/KT/KT) (MB)    (FT/S) (FT/D)
BUOY 51001       1150   75 76  130/ 10/ 14 1018.8F   6/13   7/310
BUOY 51101       1150   76 76  130/ 10/ 12 1019.3F   8/13   7/290
BUOY 51100       NOT AVBL
BUOY 51002       1150   77 78   70/ 17/ 21 1016.3F   9/15   7/ 10
BUOY 51003       1150   77 78   80/ 12/ 16 1017.6F   7/14   7/340
BUOY 51004       1050      77   80/ 17/ 21 1017.5    9/ 9   7/ 90
BARBERS PT BUOY  NOT AVBL
WAIMEA BAY BUOY  1102      76                N/A     5/14   3/320
KAILUA BAY BUOY  1134      77                N/A     6/10   2/340
LANAI BUOY       1145      78                N/A     4/12   2/260
BARBERS PT 2     NOT AVBL
PAUWELA MAUI     1139      76                N/A     7/14   5/320
HILO             1142      77                N/A     9/10   5/ 70
KANEOHE BAY BUOY 1155      75                N/A     5/ 9   2
HANALEI KAUAI    1152      77                N/A     8/14   7/310
KAHULUI HARBOR   1142   75 77   60/ 13/ 18 1018.1F
HONOLULU HARBOR  1148   76 78   CALM  /  1 1019.4F
KILO NALU        NOT AVBL
HILO HARBOR      1148   70 75  200/  4/  5 1019.2F
MOKUOLOE         1136   76 79   90/  5/  6 1019.1F
NAWILIWILI       1148   75      70/  8/ 12 1019.1F
WHOTS BUOY       NOT AVBL
BUOY 51028       NOT AVBL
$$

......................KEY........................................
  SKY/WX - SKY CONDITIONS/PRESENT WEATHER
  TMP    - TEMPERATURE IN FAHRENHEIT
  DWPT   - DEWPOINT IN FAHRENHEIT
  RH     - RELATIVE HUMIDITY IN PERCENT
  WIND   - DIRECTION AND SPEED /MPH FOR ISLANDS...KTS FOR BUOYS/
  PRES   - MEAN SEA LEVEL PRESSURE IN INCHES OF HG
  VSB    - VISIBILITY IN MILES
  HX     - HEAT INDEX
  WCI    - WIND CHILL INDEX
  VRB    - VARIABLE WIND DIRECTION
  N/A    - NOT AVAILABLE



USA.gov is the U.S. government's official web portal to all federal, state and local government web resources and services.